Total_Precipitation_Accumulation
1.97 1.85 1.31 0.83 0.75 0.58 0.45 0.43 0.41 0.42 0.46 0.67 0.73 0.68 0.76 0.73 0.67 0.66 0.67 0.74 0.84 1.00 1.22 1.42 1.73 2.13 2.37 2.64 2.83 2.99 3.03 2.99 3.00 3.12 3.04 2.77 2.48 2.31 2.07 1.98 2.00 1.96 1.90 1.90
1.66 1.33 0.72 0.56 0.62 0.58 0.47 0.47 0.44 0.43 0.49 0.67 0.71 0.65 0.65 0.64 0.60 0.61 0.66 0.66 0.72 0.79 0.98 1.13 1.40 1.71 2.01 2.29 2.66 2.85 2.98 3.09 2.92 2.74 2.81 2.77 2.62 2.43 2.26 2.15 2.14 2.00 1.91 1.87
1.23 0.88 0.64 0.58 0.58 0.58 0.46 0.43 0.39 0.47 0.57 0.65 0.71 0.72 0.57 0.53 0.51 0.52 0.56 0.56 0.61 0.73 0.83 0.96 1.15 1.36 1.66 1.96 2.31 2.58 2.76 2.97 3.05 2.94 2.98 2.90 2.76 2.48 2.22 2.02 2.00 2.01 1.96 1.91
1.12 0.68 0.64 0.64 0.51 0.48 0.42 0.28 0.35 0.47 0.70 0.73 0.69 0.84 0.51 0.47 0.51 0.52 0.57 0.57 0.58 0.66 0.74 0.86 1.02 1.18 1.38 1.69 1.95 2.20 2.51 2.75 2.92 3.03 2.91 2.73 2.52 2.24 1.97 1.95 2.06 2.08 2.02 1.93
1.08 0.71 0.67 0.68 0.48 0.41 0.38 0.27 0.36 0.51 0.70 0.77 0.55 0.69 0.56 0.46 0.57 0.62 0.63 0.62 0.60 0.62 0.70 0.78 0.91 1.05 1.22 1.47 1.72 1.89 2.14 2.44 2.58 2.55 2.55 2.56 2.41 2.21 2.09 2.04 2.03 2.01 1.93 1.86
0.85 0.66 0.71 0.64 0.46 0.39 0.39 0.46 0.53 0.61 0.92 1.08 0.62 0.70 0.67 0.65 0.72 0.65 0.59 0.57 0.63 0.68 0.74 0.81 0.89 0.99 1.07 1.20 1.43 1.64 1.73 1.95 2.16 2.18 2.23 2.31 2.19 2.07 1.99 1.90 1.87 1.90 1.83 1.73
1.15 0.83 0.64 0.58 0.64 0.51 0.52 0.89 1.23 1.22 1.18 0.84 0.49 0.63 0.76 0.72 0.75 0.75 0.68 0.64 0.71 0.77 0.87 0.94 0.94 1.02 1.07 1.13 1.17 1.37 1.49 1.58 1.76 1.94 2.01 2.01 2.05 2.00 1.92 1.78 1.71 1.76 1.73 1.60
1.15 1.09 0.65 0.54 0.63 0.58 0.49 0.69 0.97 0.94 0.72 0.49 0.41 0.63 0.76 0.72 0.71 0.70 0.70 0.71 0.74 0.86 1.00 1.04 1.04 1.16 1.21 1.23 1.20 1.24 1.31 1.30 1.39 1.61 1.78 1.80 1.89 1.87 1.75 1.61 1.52 1.49 1.47 1.45
0.73 0.73 0.43 0.34 0.37 0.48 0.57 0.54 0.47 0.86 0.72 0.56 0.47 0.50 0.56 0.57 0.62 0.69 0.72 0.71 0.77 0.91 1.05 1.13 1.17 1.21 1.18 1.16 1.21 1.22 1.27 1.23 1.16 1.24 1.37 1.49 1.60 1.63 1.55 1.44 1.34 1.30 1.32 1.32
0.41 0.55 0.43 0.36 0.42 0.50 0.48 0.46 0.64 1.22 1.14 0.76 0.48 0.47 0.68 0.67 0.69 0.69 0.69 0.69 0.79 0.84 0.93 1.03 1.05 1.04 1.09 1.11 1.15 1.21 1.25 1.28 1.18 1.14 1.20 1.29 1.32 1.34 1.31 1.29 1.22 1.13 1.10 1.11
0.29 0.44 0.47 0.52 0.50 0.50 0.48 0.54 0.69 0.92 0.87 0.88 0.59 0.67 0.80 0.72 0.68 0.66 0.63 0.66 0.71 0.73 0.75 0.79 0.81 0.86 0.93 0.98 1.09 1.18 1.28 1.27 1.15 1.16 1.18 1.17 1.19 1.25 1.20 1.14 1.12 1.11 1.04 1.00
0.27 0.41 0.47 0.44 0.32 0.28 0.38 0.43 0.60 1.05 0.86 0.67 0.64 0.70 0.66 0.59 0.56 0.56 0.58 0.62 0.63 0.66 0.66 0.65 0.64 0.64 0.66 0.72 0.81 0.91 1.02 1.04 1.02 1.04 1.11 1.06 1.06 1.17 1.18 1.10 1.05 1.03 0.99 0.89
0.42 0.63 0.77 0.62 0.52 0.43 0.47 0.45 0.60 0.95 1.10 0.82 0.75 0.69 0.55 0.48 0.43 0.46 0.50 0.54 0.55 0.54 0.52 0.49 0.49 0.51 0.50 0.52 0.60 0.71 0.81 0.86 0.92 0.95 0.97 0.96 0.95 1.00 1.02 1.05 1.04 0.99 0.99 0.92
0.59 0.68 0.81 0.88 0.78 0.70 0.61 0.46 0.62 1.16 1.38 0.74 0.53 0.56 0.47 0.44 0.46 0.47 0.46 0.45 0.45 0.43 0.41 0.37 0.35 0.36 0.36 0.39 0.49 0.56 0.62 0.69 0.77 0.80 0.80 0.79 0.83 0.83 0.82 0.84 0.85 0.85 0.85 0.83
0.58 0.83 0.77 0.65 0.55 0.63 0.62 0.50 0.58 0.85 0.75 0.65 0.46 0.44 0.49 0.47 0.48 0.47 0.42 0.37 0.32 0.30 0.29 0.26 0.25 0.26 0.27 0.28 0.34 0.43 0.52 0.60 0.69 0.76 0.78 0.76 0.75 0.74 0.73 0.72 0.69 0.67 0.70 0.72
0.57 0.87 0.86 0.68 0.40 0.43 0.46 0.37 0.43 0.52 0.46 0.43 0.36 0.41 0.36 0.35 0.39 0.41 0.35 0.28 0.24 0.24 0.23 0.20 0.19 0.19 0.21 0.22 0.25 0.32 0.42 0.51 0.58 0.67 0.72 0.72 0.72 0.71 0.69 0.66 0.64 0.62 0.62 0.65
0.54 0.80 1.05 0.78 0.39 0.46 0.51 0.40 0.41 0.47 0.41 0.38 0.44 0.39 0.27 0.28 0.35 0.43 0.37 0.26 0.21 0.21 0.19 0.18 0.18 0.17 0.16 0.18 0.23 0.30 0.37 0.42 0.45 0.51 0.57 0.60 0.63 0.66 0.66 0.66 0.68 0.72 0.74 0.75
0.36 0.61 0.98 0.83 0.62 0.74 0.53 0.33 0.32 0.39 0.39 0.35 0.36 0.28 0.26 0.29 0.30 0.33 0.34 0.29 0.22 0.16 0.13 0.13 0.15 0.15 0.14 0.16 0.21 0.29 0.39 0.45 0.49 0.55 0.57 0.57 0.59 0.66 0.71 0.78 0.85 0.93 0.98 1.00
0.21 0.52 0.89 0.79 0.62 0.42 0.26 0.21 0.28 0.37 0.41 0.30 0.28 0.23 0.20 0.22 0.27 0.29 0.26 0.26 0.24 0.17 0.13 0.12 0.13 0.15 0.17 0.19 0.20 0.26 0.37 0.46 0.53 0.59 0.63 0.65 0.70 0.80 0.87 0.97 1.05 1.08 1.14 1.14
0.16 0.38 0.84 0.79 0.64 0.36 0.26 0.12 0.14 0.27 0.43 0.23 0.20 0.20 0.17 0.18 0.28 0.30 0.28 0.30 0.30 0.24 0.18 0.14 0.13 0.15 0.20 0.24 0.27 0.34 0.45 0.55 0.62 0.68 0.74 0.78 0.81 0.87 0.91 0.93 0.95 0.95 0.94 0.91
0.27 0.45 0.68 0.63 0.58 0.32 0.21 0.08 0.09 0.33 0.43 0.23 0.22 0.22 0.21 0.24 0.29 0.27 0.25 0.28 0.30 0.31 0.29 0.27 0.26 0.27 0.31 0.37 0.44 0.53 0.61 0.73 0.78 0.78 0.83 0.85 0.82 0.83 0.81 0.73 0.67 0.65 0.62 0.57
0.27 0.38 0.41 0.44 0.61 0.43 0.21 0.15 0.29 0.40 0.25 0.20 0.19 0.20 0.22 0.21 0.19 0.18 0.19 0.23 0.25 0.27 0.30 0.34 0.38 0.39 0.40 0.46 0.57 0.65 0.72 0.76 0.73 0.67 0.65 0.62 0.56 0.53 0.50 0.47 0.45 0.44 0.43 0.43
0.28 0.40 0.42 0.43 0.50 0.39 0.29 0.29 0.29 0.25 0.22 0.20 0.21 0.20 0.19 0.20 0.20 0.19 0.18 0.18 0.19 0.19 0.20 0.24 0.30 0.34 0.33 0.34 0.39 0.42 0.42 0.40 0.39 0.37 0.36 0.36 0.36 0.36 0.36 0.35 0.35 0.35 0.36 0.36
0.28 0.25 0.31 0.37 0.36 0.28 0.24 0.21 0.19 0.18 0.21 0.20 0.19 0.17 0.17 0.19 0.18 0.17 0.16 0.16 0.16 0.16 0.17 0.18 0.20 0.22 0.23 0.21 0.21 0.21 0.20 0.21 0.23 0.26 0.27 0.29 0.31 0.32 0.34 0.34 0.33 0.33 0.34 0.34
0.30 0.27 0.31 0.34 0.28 0.22 0.20 0.18 0.19 0.17 0.15 0.15 0.14 0.14 0.15 0.16 0.15 0.15 0.15 0.16 0.16 0.15 0.16 0.18 0.22 0.24 0.26 0.24 0.23 0.23 0.24 0.25 0.27 0.29 0.29 0.31 0.32 0.32 0.33 0.34 0.35 0.36 0.37 0.40
0.27 0.33 0.40 0.40 0.29 0.29 0.26 0.18 0.16 0.16 0.15 0.16 0.17 0.17 0.16 0.17 0.19 0.18 0.18 0.18 0.18 0.17 0.17 0.19 0.21 0.25 0.28 0.27 0.26 0.26 0.27 0.29 0.30 0.30 0.30 0.30 0.31 0.31 0.31 0.31 0.33 0.38 0.40 0.42